Wetbulb
65.10 64.46 63.79 64.15 63.12 62.75 61.98 60.62 57.12 52.99 52.58 56.06 57.43 60.23 60.29 60.46 61.18 62.50 62.43 62.04 62.90 63.00 62.83 63.38 64.13 65.98 68.28 69.42 69.66 70.50 71.73 72.13 72.91 73.01 73.38 73.87 74.56 75.28
64.26 64.19 64.36 64.59 63.49 62.00 60.72 60.54 58.67 56.65 54.15 56.07 57.62 58.61 59.92 60.37 61.44 62.28 61.59 61.77 61.70 61.81 62.11 62.65 63.51 64.10 65.85 67.48 68.04 68.31 69.07 70.18 70.98 71.56 71.94 72.08 72.54 73.19
64.43 64.10 64.25 64.56 63.38 61.82 60.93 60.01 58.76 57.33 55.28 58.11 57.70 60.02 59.90 60.79 61.04 61.42 61.13 60.77 60.87 61.38 61.84 61.98 61.98 62.42 63.36 65.36 66.59 66.97 67.34 67.82 68.39 69.49 71.06 71.25 71.53 71.88
64.26 63.95 63.88 63.64 63.16 62.59 60.64 60.56 60.00 59.14 57.59 57.07 59.54 58.68 59.46 61.22 61.09 60.29 60.03 60.21 60.64 61.03 61.00 61.05 61.33 61.63 62.01 62.42 64.06 64.82 64.91 65.38 66.21 67.28 68.43 69.93 70.55 70.57
63.95 63.53 63.31 62.54 62.07 61.55 60.93 60.48 60.56 60.43 58.71 57.59 58.10 60.11 59.58 60.72 59.77 60.20 59.90 59.84 60.05 60.78 60.75 60.56 60.67 61.05 61.19 60.99 61.83 62.10 61.35 61.95 63.22 63.85 64.49 66.04 67.87 69.36
63.91 63.80 63.00 62.08 61.91 62.05 61.52 61.25 60.98 59.85 59.77 57.95 57.57 58.36 58.96 60.31 58.81 56.96 56.58 58.49 58.35 59.69 60.63 60.21 60.37 61.07 61.11 60.67 60.89 62.02 60.38 59.30 59.74 60.57 61.35 62.31 64.35 65.95
63.88 63.05 62.44 62.33 62.70 62.49 62.08 61.92 60.10 59.33 59.09 58.06 57.21 57.69 57.47 57.76 56.91 57.71 55.94 56.90 58.23 58.84 58.23 58.93 59.54 60.65 61.70 62.10 63.88 64.17 62.33 60.31 58.61 58.61 58.72 59.21 60.43 61.76
62.11 61.57 60.44 60.42 60.85 60.83 61.46 62.19 62.32 60.39 59.33 58.02 57.38 56.41 57.46 57.71 57.79 56.19 55.70 54.67 53.55 58.88 57.74 56.83 59.06 58.11 60.61 60.94 61.76 63.96 62.80 61.34 59.53 58.62 58.20 58.24 58.62 59.37
60.50 60.20 59.77 60.55 60.63 59.44 59.37 59.42 60.22 60.11 60.80 60.72 56.47 57.28 57.02 57.65 57.67 56.27 55.70 54.08 54.45 55.85 55.79 53.97 56.88 56.24 60.17 61.40 60.52 60.68 62.10 61.18 60.07 59.41 58.85 57.98 57.82 57.72
59.85 59.25 59.23 58.97 58.69 58.72 58.98 58.44 57.49 57.23 57.41 56.75 57.24 56.89 57.15 57.26 57.63 57.05 55.46 55.67 56.13 56.21 56.64 52.94 56.34 55.57 58.83 61.11 60.65 61.41 61.79 60.48 59.45 58.73 57.93 56.97 55.83 55.08
59.45 57.95 57.56 58.72 56.75 55.95 57.24 56.18 55.71 55.73 56.00 55.76 55.80 55.67 55.69 56.05 56.66 56.35 54.23 53.49 52.22 53.32 56.02 54.00 54.87 55.21 57.20 58.51 61.49 61.33 60.72 59.51 58.23 57.81 57.85 56.57 54.39 53.45
57.41 58.20 56.14 55.60 53.61 52.68 55.68 54.35 53.84 54.13 53.51 53.74 54.11 54.87 55.67 55.89 56.41 57.54 56.67 53.05 52.22 51.28 55.01 53.34 54.15 55.26 54.57 58.50 60.10 63.03 66.91 58.13 56.39 55.77 56.45 55.71 52.77 60.62
56.66 56.40 56.06 52.79 50.88 50.29 49.89 54.25 53.28 53.74 53.04 52.42 52.16 52.63 53.50 53.68 54.65 56.24 56.46 54.14 52.07 52.38 55.84 55.47 54.62 56.51 55.97 58.33 63.55 63.46 66.41 66.28 62.85 58.22 53.02 52.16 51.05 59.95
56.14 54.57 54.57 49.03 48.72 49.02 51.87 50.56 50.37 51.37 52.10 51.35 50.71 50.48 51.44 52.20 53.63 53.86 55.26 54.72 55.69 55.31 56.07 59.26 56.77 57.17 56.51 56.75 58.60 63.53 65.26 64.51 63.50 61.79 59.72 53.75 51.72 53.99
53.32 52.09 49.96 47.53 46.91 50.12 50.51 50.12 49.64 50.67 50.05 48.59 47.56 49.04 50.81 52.31 53.46 53.56 54.27 54.68 55.67 55.69 58.68 59.27 59.93 59.66 59.81 60.31 64.14 61.83 63.19 62.25 63.25 60.51 58.86 57.72 56.77 59.11
49.74 49.86 51.09 50.81 50.75 50.29 49.46 48.36 48.90 49.27 48.76 46.89 46.81 48.52 50.14 50.68 49.85 52.34 51.42 52.52 52.34 53.80 57.68 59.16 60.46 60.00 58.64 59.36 62.84 64.41 63.31 61.07 61.66 61.26 60.49 59.97 59.16 60.84
47.42 52.22 52.94 51.70 48.09 47.11 46.08 45.97 46.16 46.47 45.33 45.55 45.48 46.22 47.66 47.73 47.40 50.69 50.71 50.81 50.83 51.78 54.53 56.75 59.24 60.67 59.87 59.57 62.32 65.00 62.95 61.74 62.36 61.78 60.67 59.95 60.02 61.12
48.88 51.31 49.43 45.62 45.33 44.58 43.66 43.21 43.82 43.50 43.50 43.68 43.55 44.36 44.51 45.19 45.62 48.13 49.28 49.33 49.40 51.60 53.89 55.41 56.01 57.42 58.80 57.68 56.61 56.99 63.53 63.41 62.04 61.90 62.98 61.65 60.99 61.74
49.27 47.64 46.43 44.29 43.05 42.30 41.56 41.38 41.22 42.09 42.78 42.32 42.71 42.67 42.74 43.97 44.59 46.22 46.77 47.81 48.85 50.77 53.56 54.81 54.75 54.29 55.13 53.94 56.03 52.44 53.07 62.79 62.72 61.46 62.42 62.69 62.29 62.21
45.47 44.90 43.29 41.21 40.57 40.84 40.74 40.15 40.39 41.24 41.38 40.91 41.13 41.23 41.84 41.89 42.42 44.26 45.51 45.68 47.29 51.32 52.64 53.31 53.28 53.66 52.45 52.61 53.73 54.90 49.57 56.45 61.34 62.46 62.86 65.35 64.74 59.22
42.76 41.66 41.29 41.34 41.48 41.60 40.06 38.59 38.64 40.02 39.81 39.58 40.11 40.08 41.10 41.44 42.24 43.31 42.98 43.83 46.71 50.04 50.19 50.83 52.65 54.07 55.03 56.07 52.50 53.09 56.57 52.10 54.31 58.99 60.64 63.07 63.47 63.56
42.62 42.72 42.60 42.29 42.06 39.39 37.51 37.21 39.13 39.25 39.06 39.09 39.11 39.69 40.73 41.81 41.90 42.55 43.17 42.65 45.31 47.11 49.18 51.02 52.81 52.62 52.03 51.68 50.29 50.55 51.64 54.79 55.63 53.94 53.32 53.49 60.11 62.46
43.66 43.17 42.06 40.47 37.90 36.84 37.68 38.34 38.64 38.83 38.31 38.38 38.81 39.62 40.51 41.08 42.40 42.83 43.05 43.96 44.43 45.89 47.27 48.07 49.78 51.00 50.19 50.57 49.83 49.89 49.68 50.73 52.45 53.16 52.86 52.93 52.96 52.58
MSLP
1018.66 1018.74 1018.98 1018.98 1019.15 1019.15 1019.25 1019.36 1019.66 1019.83 1019.20 1018.39 1018.24 1017.54 1017.46 1017.34 1017.06 1016.71 1016.40 1016.03 1015.71 1015.36 1014.98 1014.53 1014.20 1013.93 1013.64 1013.44 1013.25 1013.14 1013.05 1012.99 1013.13 1013.47 1013.78 1014.16 1014.45 1014.72
1018.32 1018.47 1018.53 1018.51 1018.60 1018.70 1018.79 1019.01 1019.19 1019.22 1019.06 1018.25 1017.78 1017.43 1017.03 1016.82 1016.53 1016.25 1016.01 1015.70 1015.19 1014.81 1014.40 1013.96 1013.56 1013.24 1012.99 1012.71 1012.50 1012.33 1012.31 1012.29 1012.33 1012.54 1012.82 1013.10 1013.51 1013.83
1018.00 1018.13 1017.99 1018.05 1018.10 1018.27 1018.43 1018.51 1018.51 1018.84 1018.87 1017.62 1017.61 1016.92 1016.64 1016.27 1015.94 1015.73 1015.50 1015.14 1014.52 1014.02 1013.63 1013.18 1012.78 1012.40 1012.08 1011.85 1011.61 1011.45 1011.39 1011.47 1011.45 1011.64 1011.91 1012.17 1012.42 1012.89
1017.49 1017.60 1017.53 1017.63 1017.78 1017.90 1018.12 1018.09 1017.97 1017.84 1018.09 1017.34 1016.70 1016.56 1016.22 1015.69 1015.29 1015.08 1014.73 1014.35 1013.91 1013.34 1012.91 1012.40 1012.02 1011.57 1011.07 1010.72 1010.55 1010.47 1010.39 1010.39 1010.45 1010.62 1010.81 1011.21 1011.46 1011.75
1016.86 1016.97 1016.92 1017.21 1017.10 1017.08 1017.16 1017.35 1017.37 1017.17 1017.37 1017.13 1016.18 1015.83 1015.61 1015.18 1014.82 1014.36 1014.06 1013.59 1013.17 1012.55 1012.05 1011.50 1010.87 1010.42 1009.98 1009.53 1009.32 1009.20 1009.17 1009.26 1009.33 1009.50 1009.75 1010.13 1010.50 1010.74
1016.15 1016.23 1016.40 1016.46 1016.50 1016.45 1016.56 1016.61 1016.71 1016.85 1016.88 1016.63 1015.86 1015.28 1015.09 1014.54 1014.41 1013.85 1013.06 1012.79 1012.25 1011.65 1010.96 1010.44 1009.79 1009.26 1008.75 1008.26 1007.89 1007.83 1007.85 1007.98 1008.23 1008.39 1008.63 1009.02 1009.48 1009.96
1015.46 1015.62 1015.81 1015.84 1015.69 1015.69 1015.88 1015.72 1016.09 1016.08 1016.17 1015.88 1015.16 1014.66 1014.33 1013.89 1013.56 1013.07 1012.62 1011.84 1011.20 1010.93 1009.84 1009.08 1008.54 1007.88 1007.30 1006.74 1006.16 1005.99 1006.32 1006.57 1006.91 1007.17 1007.52 1008.00 1008.45 1008.95
1015.05 1015.14 1015.25 1015.43 1015.15 1015.13 1015.25 1015.21 1015.24 1015.32 1015.40 1015.31 1014.70 1014.16 1013.62 1013.45 1013.07 1012.79 1012.04 1011.24 1009.86 1010.15 1008.82 1007.85 1008.04 1006.75 1006.12 1005.58 1005.07 1004.64 1004.65 1005.04 1005.51 1006.00 1006.31 1006.75 1007.36 1007.90
1014.80 1014.94 1014.92 1014.86 1015.02 1014.87 1014.57 1014.81 1014.89 1015.00 1015.04 1015.01 1014.65 1013.89 1013.43 1012.73 1012.66 1012.26 1011.92 1011.21 1010.02 1009.00 1008.75 1006.30 1006.75 1005.40 1004.83 1004.05 1003.70 1003.51 1003.51 1003.68 1004.01 1004.46 1004.97 1005.37 1006.01 1006.65
1014.47 1014.64 1014.82 1014.74 1014.74 1014.73 1014.58 1014.43 1014.49 1014.65 1014.63 1014.67 1014.37 1013.63 1013.09 1012.56 1012.34 1011.82 1011.26 1010.45 1009.20 1008.31 1007.59 1005.41 1004.93 1003.81 1003.36 1002.63 1002.20 1002.11 1002.09 1002.27 1002.73 1003.18 1003.64 1004.02 1004.60 1005.33
1014.28 1014.45 1014.46 1014.65 1014.45 1014.41 1014.16 1014.35 1014.34 1014.07 1014.07 1013.97 1013.64 1013.37 1012.76 1012.08 1011.65 1011.35 1010.30 1009.57 1007.84 1006.49 1005.75 1004.55 1003.36 1002.35 1001.81 1001.08 1000.76 1000.64 1000.73 1000.83 1001.33 1001.91 1002.42 1002.94 1003.47 1004.21
1014.11 1014.28 1014.36 1014.52 1014.24 1014.08 1014.19 1014.42 1014.25 1013.93 1013.91 1013.15 1012.70 1012.52 1012.10 1011.32 1010.77 1010.55 1009.72 1008.70 1007.21 1004.65 1004.01 1003.21 1001.89 1001.46 1000.17 999.41 999.31 999.42 999.40 999.48 999.89 1000.59 1001.35 1001.95 1002.61 1003.94
1013.93 1013.87 1014.01 1014.02 1014.07 1014.08 1014.14 1014.37 1014.21 1014.13 1013.92 1013.42 1012.59 1012.10 1011.65 1011.08 1010.42 1009.61 1008.84 1008.14 1006.12 1003.66 1002.19 1001.61 1000.31 999.84 999.59 998.71 997.30 997.65 998.01 998.43 999.18 999.95 1000.54 1001.16 1002.03 1002.55
1013.50 1013.53 1013.72 1014.04 1014.00 1014.12 1014.30 1014.19 1014.18 1014.02 1013.82 1013.22 1012.53 1011.96 1011.42 1010.69 1010.00 1009.17 1008.14 1006.92 1005.19 1003.06 1000.76 998.80 998.45 998.67 998.54 998.35 997.87 997.16 997.31 997.86 998.41 999.00 999.70 1000.44 1001.56 1002.13
1013.59 1013.65 1013.78 1013.64 1013.64 1014.11 1014.37 1014.25 1014.19 1014.00 1013.60 1013.25 1012.64 1012.01 1011.35 1010.53 1009.72 1008.58 1007.29 1005.87 1003.68 1001.66 999.94 998.48 997.83 997.94 997.97 997.78 996.91 996.92 997.13 997.64 998.05 998.69 999.53 1000.24 1000.71 1001.15
1013.51 1013.33 1013.26 1013.33 1013.61 1013.91 1014.11 1014.25 1014.19 1013.78 1013.52 1013.30 1012.56 1011.94 1011.14 1010.21 1009.45 1008.33 1007.23 1005.49 1003.41 1000.84 999.03 998.01 997.53 997.74 997.56 997.27 996.77 996.51 996.76 996.97 997.72 998.35 999.01 999.70 999.99 1000.49
1013.45 1013.22 1013.29 1013.47 1013.79 1014.00 1014.14 1014.18 1013.92 1013.64 1013.50 1013.12 1012.47 1011.83 1011.06 1010.18 1009.28 1008.20 1007.17 1005.68 1004.07 1002.04 999.80 998.52 997.79 997.44 997.39 997.35 996.76 996.34 996.44 996.85 997.34 997.89 998.67 999.07 999.60 1000.10
1013.28 1013.37 1013.46 1013.71 1013.77 1013.99 1014.12 1014.01 1013.71 1013.53 1013.45 1013.02 1012.39 1011.81 1011.10 1010.34 1009.40 1008.23 1007.34 1006.14 1004.69 1002.96 1000.96 999.69 998.63 997.85 997.51 997.69 997.72 997.34 996.60 996.66 996.95 997.69 998.04 998.49 998.84 999.33
1013.06 1013.35 1013.47 1013.56 1013.85 1014.12 1014.22 1013.98 1013.75 1013.69 1013.58 1012.98 1012.50 1011.80 1011.09 1010.34 1009.61 1008.50 1007.58 1006.54 1005.27 1003.96 1002.24 1000.88 999.76 998.75 998.07 998.06 998.28 998.45 997.96 996.69 996.71 997.35 997.68 997.85 997.84 998.23
1013.21 1013.46 1013.54 1013.76 1013.96 1014.32 1014.31 1014.10 1013.82 1013.64 1013.36 1013.00 1012.51 1011.88 1011.14 1010.55 1009.66 1008.79 1008.03 1007.32 1006.17 1004.81 1003.50 1001.82 1000.88 1000.18 999.43 999.20 998.90 998.58 998.03 997.60 996.47 996.46 997.03 997.31 997.52 997.86
1013.43 1013.62 1013.79 1013.87 1014.10 1014.35 1014.31 1014.20 1014.06 1013.70 1013.53 1013.16 1012.63 1012.03 1011.27 1010.55 1009.76 1009.01 1008.28 1007.51 1006.59 1005.66 1004.67 1003.17 1002.52 1001.50 1000.76 999.80 999.36 999.22 998.36 997.82 997.25 996.92 996.80 997.21 997.64 998.01
1013.52 1013.75 1013.91 1014.03 1014.24 1014.34 1014.32 1014.20 1013.94 1013.75 1013.53 1013.28 1012.88 1012.25 1011.48 1010.67 1009.91 1009.19 1008.49 1007.86 1007.00 1006.36 1005.70 1004.75 1003.60 1002.46 1001.85 1001.20 1000.67 1000.23 999.68 998.62 998.38 997.45 997.46 997.88 997.91 998.02
1013.52 1013.71 1013.83 1014.05 1014.29 1014.37 1014.32 1014.14 1013.95 1013.83 1013.74 1013.54 1013.03 1012.35 1011.71 1010.88 1010.10 1009.52 1008.67 1008.26 1007.54 1006.67 1006.00 1005.31 1004.46 1003.52 1002.75 1002.44 1002.39 1001.67 1000.63 1000.15 999.72 998.99 998.95 998.83 998.72 998.51
Wind_Speed
5 5 4 4 4 4 4 4 4 2 3 2 3 4 5 5 8 10 10 15 18 18 19 19 19 19 20 20 20 21 20 22 23 23 21 22 22 22
3 4 5 5 5 5 5 4 4 4 4 4 4 5 6 7 9 10 11 17 18 18 19 18 19 21 21 21 21 22 21 22 22 22 23 22 22 22
4 5 7 5 5 5 5 4 5 5 6 5 5 4 6 9 9 9 10 10 10 17 19 20 21 21 22 22 23 22 22 23 22 23 24 24 23 22
6 5 8 3 6 6 5 8 7 6 5 11 7 6 7 10 11 11 9 10 11 17 22 22 22 23 23 22 23 23 22 22 22 22 23 25 23 22
6 6 7 5 7 5 7 7 7 6 6 6 10 7 7 8 9 9 10 10 10 18 19 20 21 22 23 22 21 24 21 21 22 21 19 20 21 24
7 6 6 6 7 6 6 8 7 7 7 7 9 9 9 8 7 10 10 8 10 12 15 18 23 24 27 27 25 25 24 23 23 22 20 20 21 21
6 5 5 7 10 9 4 6 6 6 6 7 9 9 9 9 10 9 10 11 11 11 12 12 12 11 13 19 23 25 26 24 23 22 20 19 20 20
5 4 4 7 7 9 9 12 11 7 8 5 8 9 13 10 10 10 11 12 14 11 12 14 13 14 13 12 19 20 21 24 23 22 22 22 21 19
5 4 5 3 5 6 7 7 8 9 10 8 10 11 12 14 12 12 12 13 16 14 15 20 13 16 13 14 21 22 23 23 25 25 25 24 23 22
4 4 5 6 6 5 6 5 5 5 6 5 7 12 12 15 13 13 14 15 16 14 15 18 13 16 14 13 22 23 22 23 23 25 24 23 23 21
4 3 4 7 6 4 3 5 6 6 6 10 11 15 20 22 20 11 11 12 15 16 13 14 13 16 13 13 13 21 21 22 23 24 24 23 21 20
3 4 7 6 6 1 2 3 5 6 9 12 12 12 12 14 19 12 11 13 16 19 13 12 13 11 8 10 14 13 11 18 22 22 22 21 17 10
4 3 3 4 4 4 4 2 3 6 11 8 9 9 10 11 11 11 13 13 17 18 18 13 11 9 9 8 7 12 12 8 10 10 16 16 19 17
4 2 2 3 3 3 2 5 6 7 5 6 7 8 8 9 10 12 16 17 17 20 24 17 6 10 9 10 7 1 3 5 6 6 7 9 17 14
1 2 7 7 4 1 3 6 6 4 5 6 7 7 8 9 12 13 15 18 19 19 12 12 5 3 3 7 6 4 5 4 5 7 7 10 9 10
1 3 3 1 5 4 2 4 3 3 4 5 6 7 8 8 9 10 12 13 14 14 16 13 6 4 4 5 6 4 3 4 5 5 6 5 6 6
2 0 2 2 1 2 3 3 4 4 5 6 6 7 8 8 9 10 10 12 12 14 13 11 8 1 2 2 5 3 4 3 5 5 5 6 6 8
2 2 2 1 1 2 3 4 3 6 6 6 7 6 8 8 10 10 9 9 12 13 13 11 9 3 2 4 11 4 2 4 5 7 4 6 6 8
2 2 1 1 1 1 2 2 3 5 7 6 6 7 8 8 10 9 9 9 10 10 13 13 11 9 5 4 4 14 3 1 6 7 6 4 6 8
2 1 1 2 2 1 2 3 4 4 5 6 7 7 7 8 9 9 8 9 10 9 9 11 13 11 11 7 3 3 12 4 2 7 6 3 3 5
1 2 2 2 1 2 2 3 4 4 5 6 6 7 7 7 8 8 8 11 10 7 8 10 11 18 8 3 9 8 7 15 6 1 1 4 3 3
3 2 2 2 2 1 2 2 2 3 4 5 6 6 7 7 8 9 8 8 8 6 6 6 10 9 9 9 11 12 10 8 10 22 23 13 1 5
3 2 3 3 1 1 2 1 1 2 3 4 5 6 7 7 8 7 8 7 8 7 7 7 7 6 9 9 8 9 17 13 8 10 12 20 19 18
Wind_Direction
232 227 229 234 227 214 205 181 171 250 266 252 271 247 271 300 300 310 304 306 310 305 304 300 299 295 278 267 262 259 249 239 230 229 227 228 229 229
256 245 239 233 234 223 218 208 203 194 268 210 245 261 280 291 296 300 299 301 304 298 292 289 291 293 286 270 259 253 249 244 237 229 225 222 223 225
259 247 254 230 239 232 222 222 218 191 246 280 244 274 286 289 294 294 294 293 292 289 287 286 285 284 283 276 261 248 244 243 241 237 231 225 220 220
251 249 258 266 246 244 228 233 236 216 221 269 285 275 274 286 290 290 288 290 286 287 286 284 282 279 275 271 259 248 241 239 239 236 231 226 219 218
241 234 246 247 254 238 230 239 242 249 228 248 277 277 279 287 287 281 280 283 278 286 279 281 282 274 271 269 259 248 233 230 229 225 218 219 218 217
246 243 243 234 247 254 246 244 251 255 254 253 268 277 275 277 276 284 289 287 288 291 287 276 278 276 274 267 259 247 235 225 225 225 220 215 214 217
230 237 238 240 241 238 236 257 242 245 250 257 273 282 282 282 282 294 288 294 289 293 287 285 282 274 270 266 258 244 237 227 223 222 218 215 214 210
245 252 248 270 279 277 262 250 244 251 260 267 277 278 284 288 287 282 292 300 296 281 289 286 281 273 267 270 272 247 227 223 220 214 211 211 215 208
228 248 278 262 281 283 287 292 287 275 257 273 279 277 287 283 288 284 286 282 282 290 290 284 281 271 263 256 252 254 232 218 217 216 212 207 208 210
234 238 251 279 271 274 288 291 286 293 296 288 262 280 281 286 281 282 282 279 281 275 271 272 275 267 264 251 248 249 232 219 216 216 213 206 201 204
234 235 233 262 281 314 283 292 303 304 291 285 282 283 285 285 277 284 280 288 285 283 282 272 269 267 255 248 247 241 237 221 213 211 211 208 201 198
224 252 247 272 298 227 230 258 292 304 314 315 319 309 302 297 292 281 282 286 290 288 281 270 263 255 255 231 234 234 233 221 208 203 205 204 184 189
237 256 266 310 251 195 171 231 267 305 304 308 311 311 314 312 302 293 286 285 285 286 290 277 250 242 223 281 212 210 214 211 201 196 189 178 171 189
244 259 278 300 263 233 238 284 303 311 301 314 317 317 312 305 298 297 295 288 281 289 298 288 228 229 215 237 253 132 185 181 176 182 177 163 178 184
294 301 285 288 271 234 326 352 330 314 332 326 319 310 302 296 298 301 300 298 305 300 296 301 241 218 282 241 224 181 163 162 166 157 160 173 172 177
285 295 302 216 110 97 23 343 323 334 332 315 314 304 296 308 312 305 310 313 319 323 328 335 239 219 272 245 272 167 181 140 148 160 160 171 155 178
298 30 116 130 109 20 339 324 332 346 340 331 319 314 309 315 316 315 315 318 325 325 339 349 350 352 121 289 277 207 154 131 152 146 161 174 182 191
174 193 148 121 69 347 337 330 335 349 340 329 322 318 315 319 317 319 321 328 324 332 341 347 345 310 220 86 48 351 246 160 142 168 172 183 185 190
158 149 150 101 59 9 328 329 327 333 320 330 326 326 326 321 324 326 329 330 326 332 344 348 357 12 13 7 355 46 299 240 151 173 186 184 193 193
79 151 150 129 110 320 323 330 324 333 338 336 332 331 332 331 331 331 334 327 324 325 349 347 358 5 19 358 343 7 13 298 197 172 177 163 96 113
115 134 146 142 160 261 308 315 317 337 339 336 336 335 334 336 335 331 322 327 330 340 353 350 341 344 4 332 31 8 8 24 13 324 79 141 145 142
149 164 173 183 210 266 304 316 324 346 353 347 340 336 336 339 341 338 338 332 340 337 331 312 332 355 13 21 17 8 2 11 44 59 56 43 2 180
171 171 147 148 172 262 302 339 4 352 353 341 338 342 342 344 343 347 340 359 353 338 343 351 349 356 15 16 11 11 11 12 358 25 40 27 45 68